Location: Devore Heights
(34.2372°N, 117.4156°W)
Time: 01:43:41
(UTC+00:00)

SR - Pass Details

Date: 20 September 2024
Orbit: 578 x 855 km, 66.7° (Epoch: 02 October)

Event Time Altitude Azimuth Distance (km) Brightness Sun altitude
Rises 04:27:43 0° 342° (NNW) 2,986 ? -32.4°
Reaches altitude 10° 04:30:04 10° 350° (N) 2,114 ? -32.8°
Enters shadow 04:31:10 16° 357° (N) 1,737 ? -33.0°
Maximum altitude 04:34:36 40° 60° (ENE) 1,055 - -33.6°
Drops below altitude 10° 04:39:27 10° 129° (SE) 2,278 - -34.5°
Sets 04:42:04 0° 137° (SE) 3,247 - -35.0°
